Lid_Strength_Index
14 17 20 19 18 17 18 19 20 18 15 14 16 16 16 15 15 16 16 16 16 15 14 14 14 14 15 15 15 15 15 15 15 15 15 14 14 13 11 10 9 10 9 9
17 19 17 16 16 17 18 19 19 17 14 14 15 17 16 15 15 15 15 15 14 14 14 13 13 13 13 13 13 14 14 14 14 14 14 14 13 13 13 12 11 11 10 10
19 18 16 16 17 17 18 19 19 18 15 14 15 18 17 16 15 15 15 15 15 15 14 14 14 14 13 13 13 12 12 12 12 13 14 14 13 14 14 14 13 12 11 10
18 17 17 17 18 17 18 17 17 17 18 21 13 25 18 17 17 16 16 17 16 15 14 14 14 14 14 13 13 12 12 12 12 11 12 13 14 15 14 14 13 13 12 11
18 18 19 19 18 17 17 16 16 16 18 20 19 24 20 17 18 19 18 17 16 15 15 14 14 13 13 13 13 13 12 12 12 12 12 12 13 12 12 12 13 14 13 12
17 16 18 18 17 16 16 16 16 17 19 26 22 22 22 19 18 18 18 17 16 15 15 14 14 13 13 13 13 13 13 12 12 12 12 12 13 13 13 12 12 12 13 13
17 18 17 16 18 16 17 20 30 28 30 28 20 24 21 18 18 18 18 17 16 16 15 15 15 15 14 14 14 13 13 13 12 12 12 12 13 13 13 13 13 13 12 12
23 22 18 16 18 19 18 21 27 31 29 27 21 26 22 16 17 17 17 17 16 16 15 15 15 15 15 14 14 14 14 13 13 12 12 12 12 12 13 12 13 13 13 13
25 21 17 16 17 18 20 23 19 31 37 32 25 20 17 16 18 18 18 18 18 17 16 15 15 15 14 14 14 14 14 13 13 13 12 12 12 12 13 12 12 12 12 12
21 24 18 17 16 16 18 17 25 29 33 34 27 26 24 18 17 17 19 18 17 16 16 15 14 15 14 14 14 14 14 14 13 13 12 12 12 12 12 12 13 13 12 13
19 23 21 18 20 21 21 21 22 26 27 33 33 26 22 19 16 17 19 17 17 16 15 15 14 14 14 14 14 14 14 14 13 13 12 12 12 12 13 13 13 13 13 13
18 26 28 23 19 19 18 21 22 29 30 27 26 26 17 17 17 17 17 16 16 15 15 15 14 15 14 14 14 14 13 13 13 13 12 12 12 12 13 13 13 13 13 13
19 26 32 26 22 19 21 19 20 25 27 31 31 26 18 17 18 16 17 16 15 15 15 14 14 15 14 14 13 13 13 13 12 12 12 11 11 12 12 12 12 12 12 13
17 24 26 26 25 24 24 22 22 26 32 27 25 23 19 17 17 16 16 15 16 15 15 14 15 14 14 13 13 12 12 12 11 11 11 10 10 10 10 10 10 10 11 11
20 28 25 25 22 22 21 20 21 24 24 27 22 23 19 17 17 16 15 14 14 14 14 14 14 14 13 13 12 11 11 10 10 10 10 10 9 9 9 10 10 10 10 10
19 29 26 30 24 22 22 20 20 20 19 21 20 21 16 16 15 16 15 15 15 14 14 13 12 12 11 10 10 10 9 9 9 10 9 9 9 9 9 10 10 10 10 11
24 27 31 32 26 29 28 24 21 20 20 19 23 19 18 18 17 16 15 14 14 14 13 12 11 10 10 9 9 9 9 8 9 8 8 9 9 9 10 10 10 11 11 12
27 28 31 32 32 34 21 20 20 19 18 18 18 18 17 16 16 15 14 15 14 13 12 11 10 9 9 8 8 7 7 8 8 8 9 9 10 11 11 11 11 12 12 13
19 24 32 32 37 26 21 20 21 22 21 16 18 17 16 15 18 17 13 13 13 13 11 10 8 8 9 8 7 7 7 8 9 11 11 10 11 12 12 12 13 13 13 13
20 20 25 36 36 34 22 20 18 18 24 17 17 16 16 17 20 16 13 13 11 10 11 10 8 8 8 9 8 7 8 10 12 11 11 11 12 12 13 13 13 13 13 12
23 21 23 28 31 27 19 18 17 25 20 16 16 15 16 17 15 13 12 12 11 11 10 9 10 9 10 10 8 11 12 14 12 12 12 13 13 14 14 14 13 13 14 13
26 27 27 27 30 28 17 18 19 16 15 14 15 15 14 13 12 12 11 10 9 9 9 9 11 12 11 9 9 13 14 14 13 13 14 15 15 15 15 15 14 15 15 15
24 21 24 23 22 17 16 15 14 13 14 14 15 12 14 14 13 11 11 9 9 8 8 11 13 13 12 13 11 12 15 14 15 15 16 16 16 15 14 15 16 16 15 16
20 17 20 20 18 17 16 14 13 13 13 12 11 12 12 12 11 10 9 8 8 8 8 11 11 13 14 14 13 16 17 15 16 17 17 16 16 16 16 15 15 16 17 16
17 17 18 18 15 14 13 13 12 11 11 11 11 11 10 10 9 8 9 8 8 8 9 10 11 11 13 13 15 18 16 16 17 17 17 17 16 17 17 17 17 16 15 14
15 15 16 16 12 13 13 11 11 11 11 10 10 10 9 9 8 7 8 8 9 10 11 12 13 15 15 17 18 18 20 19 20 19 18 18 19 18 18 18 18 15 13 12